Location: *
(49.7115°N, 15.0136°E)
Time: 15:21:42
(UTC+00:00)

NOSS 2-3 (D) - Pass Details

Date: 27 February 2020
Orbit: 583 x 1629 km, 63.4° (Epoch: 25 March)

Event Time Altitude Azimuth Distance (km) Brightness Sun altitude
Rises 17:17:12 0° 217° (SW) 2,818 7.6 -7.1°
Reaches altitude 10° 17:19:17 10° 217° (SW) 1,961 6.8 -7.4°
Maximum altitude 17:23:37 81° 131° (SE) 687 3.7 -8.1°
Drops below altitude 10° 17:28:52 10° 44° (NE) 2,359 6.1 -9.0°
Enters shadow 17:31:18 - 44° (NE) 3,333 6.9 -9.4°
